This demonstration page uses our WeatherBlox Daily Observations layout. Learn more.

Left ArrowRight Arrow

39.01783, -85.05884

Hourly Observations for March 2, 2018

Temp ( °F °C ) Dew Point ( °F °C ) Humidity (%) Winds ( mph kmh ) Pressure ( in mb ) Visibility ( mi km ) Precip ( " mm )
12:25 am 00:25 Partly Cloudy 38 3.3 34 1.1 86 86 NW 15 24 30.15 1021 10 16 N/A
12:52 am 00:52 Mostly Clear 37 2.8 33 0.6 86 86 NW 14 22 30.14 1021 10 16 N/A
1:52 am 01:52 Mostly Clear 35 1.7 32 undefined 89 89 WNW 13 20 30.16 1021 10 16 N/A
2:52 am 02:52 Clear 34 1.1 28 -2.2 79 79 NW 12 19 30.18 1022 10 16 N/A
3:52 am 03:52 Clear 33 0.6 28 -2.2 82 82 WNW 12 19 30.20 1023 10 16 N/A
4:52 am 04:52 Clear 33 0.6 28 -2.2 82 82 NW 13 20 30.22 1023 10 16 N/A
5:52 am 05:52 Mostly Clear 32 undefined 29 -1.7 88 88 NW 13 20 30.25 1024 10 16 N/A
6:52 am 06:52 Mostly Clear 32 undefined 29 -1.7 88 88 NW 12 19 30.27 1025 10 16 N/A
7:52 am 07:52 Mostly Sunny 33 0.6 29 -1.7 85 85 NW 12 19 30.30 1026 10 16 N/A
8:52 am 08:52 Mostly Sunny 35 1.7 30 -1.1 82 82 NNW 16 26 30.32 1027 10 16 N/A
9:52 am 09:52 Mostly Sunny 38 3.3 30 -1.1 73 73 NNW 15 24 30.34 1027 10 16 N/A
10:52 am 10:52 Mostly Sunny 42 5.6 30 -1.1 62 62 N 14 22 30.35 1028 10 16 N/A
11:52 am 11:52 Mostly Sunny 44 6.7 27 -2.8 51 51 NNW 16 26 30.36 1028 10 16 N/A
12:52 pm 12:52 Mostly Sunny 46 7.8 26 -3.3 46 46 NNW 20 31 30.36 1028 10 16 N/A
1:52 pm 13:52 Partly Cloudy 47 8.3 24 -4.4 41 41 N 17 28 30.37 1028 10 16 N/A
2:52 pm 14:52 Partly Cloudy 48 8.9 25 -3.9 41 41 NNW 16 26 30.37 1028 10 16 N/A
3:52 pm 15:52 Mostly Sunny 48 8.9 25 -3.9 41 41 NNW 15 24 30.37 1028 10 16 N/A
4:52 pm 16:52 Mostly Sunny 46 7.8 24 -4.4 42 42 N 12 19 30.37 1029 10 16 N/A
5:52 pm 17:52 Mostly Sunny 45 7.2 25 -3.9 46 46 NNW 13 20 30.37 1029 10 16 N/A
6:52 pm 18:52 Mostly Clear 41 5 26 -3.3 55 55 NNW 9 15 30.40 1029 10 16 N/A
7:52 pm 19:52 Clear 40 4.4 26 -3.3 58 58 N 8 13 30.40 1029 10 16 N/A
8:52 pm 20:52 Clear 39 3.9 27 -2.8 62 62 NNE 8 13 30.40 1029 10 16 N/A
9:52 pm 21:52 Clear 39 3.9 26 -3.3 60 60 NNE 7 11 30.40 1030 10 16 N/A
10:52 pm 22:52 Clear 38 3.3 26 -3.3 62 62 NE 7 11 30.41 1030 10 16 N/A
11:52 pm 23:52 Clear 37 2.8 26 -3.3 65 65 NE 6 9 30.42 1030 10 16 N/A

Powered by AerisWeather